Temperature
16 16 15 16 16 16 15 15 14 14 14 14 15 15 15 15 15 14 15 15 15 15 15 16 17 16 16 16 16 16 15 15 15 12 12 12 11 11 12 11 11 12 12
17 16 15 15 15 15 14 15 14 14 14 15 15 15 15 15 15 14 14 15 15 15 16 16 17 16 16 16 16 15 15 15 14 13 12 11 11 11 11 11 11 10 11
16 16 16 15 15 14 14 14 13 14 14 15 15 15 15 15 15 15 15 15 15 15 16 16 16 16 16 16 16 16 15 15 14 13 14 12 11 11 11 10 10 10 11
16 16 15 14 14 13 13 13 13 13 13 14 14 15 15 16 15 15 14 15 15 15 16 16 17 16 16 16 16 16 15 15 14 13 12 12 11 11 10 10 9 9 8
16 16 15 14 13 13 12 12 13 13 13 13 14 14 14 15 15 14 14 15 15 15 16 16 16 16 16 16 16 16 16 15 14 14 12 13 11 11 10 10 9 8 8
15 15 15 14 12 12 12 12 12 12 13 13 13 14 14 14 14 15 15 15 14 14 14 14 15 15 16 16 16 15 16 16 15 14 13 13 13 11 10 10 9 9 8
14 14 14 13 12 12 12 12 12 12 12 13 13 14 14 13 14 14 14 15 14 13 13 13 13 15 15 16 16 16 16 16 15 15 14 13 12 11 11 10 10 10 9
14 13 13 12 12 11 12 12 12 12 12 13 13 14 13 13 13 13 13 13 13 13 13 13 13 14 15 15 16 16 16 16 15 14 14 14 13 12 12 12 11 10 9
13 13 13 12 11 11 11 11 11 12 12 12 12 13 13 13 13 13 13 13 13 13 13 13 13 14 15 15 15 15 14 14 15 14 14 13 13 13 12 11 10 10 9
13 12 12 12 11 11 11 11 11 12 12 12 12 12 12 12 12 13 13 13 13 13 13 13 13 14 15 15 15 15 14 14 15 14 14 13 13 13 12 11 11 11 9
12 12 11 11 11 11 11 11 11 12 12 12 12 12 12 12 12 13 13 13 13 13 13 13 14 14 14 14 14 14 14 14 15 13 13 13 13 13 12 11 10 10 10
11 11 11 11 11 11 11 11 11 12 12 12 12 12 12 12 12 13 13 12 12 12 12 12 13 13 13 14 14 14 14 14 14 13 13 12 12 12 12 12 11 10 9
10 10 10 10 11 10 11 11 11 11 12 11 11 11 11 11 11 12 12 12 12 12 12 12 12 12 13 14 14 13 14 14 14 13 12 12 12 12 12 12 11 10 10
10 10 10 10 10 11 11 11 11 12 11 11 11 11 11 11 12 11 11 11 11 11 11 11 11 12 13 13 13 13 13 13 13 12 12 12 12 12 11 11 11 11 10
10 9 9 10 10 10 10 10 11 11 11 11 11 11 11 11 11 11 11 11 11 10 11 11 11 12 12 12 12 13 13 13 13 13 13 13 12 11 11 11 11 10 9
10 10 10 10 10 10 11 11 11 11 11 11 11 11 10 10 10 11 11 11 11 11 10 10 10 10 11 11 11 12 13 13 13 13 12 12 12 11 11 11 11 9 8
10 10 10 10 11 11 11 11 11 11 11 10 11 10 10 10 10 11 11 11 11 10 10 10 10 10 11 11 11 12 12 12 13 12 12 12 11 10 10 11 10 9 7
11 11 11 11 11 11 11 11 10 10 10 10 10 10 10 10 10 11 11 10 10 10 10 10 9 10 10 11 11 12 12 12 12 12 12 11 11 10 10 9 9 8 7
11 11 11 11 11 11 11 10 10 10 10 10 10 9 9 9 10 10 10 10 10 10 10 10 10 10 10 11 11 11 12 12 12 12 11 11 11 10 10 8 8 7 7
10 10 10 11 11 11 11 11 10 10 10 10 10 10 9 9 9 9 10 10 9 10 10 10 10 10 10 10 11 11 11 11 11 11 11 11 10 10 9 8 7 7 8
10 10 10 10 10 10 10 10 10 10 10 10 10 9 9 9 9 9 10 10 9 10 10 10 10 10 10 10 11 11 11 11 11 11 11 11 11 10 10 9 8 8 7
10 10 10 10 10 10 10 10 10 10 10 10 9 9 9 9 9 10 10 9 9 10 10 10 10 10 10 11 11 11 11 11 11 11 11 11 11 10 10 9 8 7 7
9 10 10 10 10 10 10 10 10 10 10 10 10 10 10 10 10 10 10 10 9 9 10 10 10 10 11 12 11 11 11 11 11 11 11 11 11 10 10 9 8 8 7
9 9 10 10 10 10 10 10 10 10 10 10 10 10 10 10 10 10 10 10 10 10 10 10 10 11 12 12 12 12 12 11 11 11 11 10 10 10 9 9 9 8 7
9 10 10 10 10 10 10 10 10 10 10 10 10 10 10 10 10 10 10 10 10 10 10 10 10 11 11 11 12 12 12 11 11 11 11 10 10 9 9 9 8 7 7
10 10 10 10 10 10 10 10 10 10 10 10 10 10 10 10 10 10 10 10 10 10 10 10 10 10 11 11 11 11 11 11 11 10 10 10 10 9 9 9 8 7 6
Wind_Speed
5 5 5 7 7 5 5 6 5 7 9 10 10 10 10 11 12 11 11 11 11 10 10 11 11 12 10 8 9 8 7 6 7 7 4 6 9 8 8 8 8 10 11
1 3 5 4 3 4 6 6 6 7 7 8 9 10 11 11 12 14 13 12 12 11 11 11 11 10 11 11 10 10 8 7 7 10 5 3 5 8 8 8 8 9 11
7 7 5 4 4 5 6 5 6 6 7 8 10 11 11 12 12 13 13 12 12 10 8 10 10 10 11 10 11 10 9 8 8 10 7 4 3 7 8 8 9 9 10
7 5 4 4 4 5 6 6 6 7 8 8 9 11 12 12 12 13 12 11 10 9 8 7 7 8 9 11 11 11 10 10 9 10 10 8 6 8 8 9 8 7 6
8 6 5 5 6 5 5 5 6 7 8 7 8 10 11 11 11 12 12 10 9 9 9 6 2 3 7 4 8 10 11 10 9 9 10 8 9 10 10 9 9 7 6
9 7 6 6 6 5 5 6 5 6 8 7 8 8 9 8 8 7 9 7 6 7 7 8 3 3 5 1 4 3 10 12 11 10 10 11 12 13 11 10 9 8 5
11 9 8 8 7 6 5 5 4 5 6 8 8 6 8 8 9 10 10 7 6 8 8 7 5 2 5 7 4 3 3 6 3 8 10 12 14 16 15 13 12 10 5
10 9 8 7 7 6 6 6 5 4 5 6 7 8 7 7 10 11 8 6 5 6 7 7 6 5 5 6 10 11 10 9 6 5 6 9 10 14 14 13 12 8 4
9 9 7 7 6 7 7 8 7 6 5 6 6 8 7 6 8 10 9 6 4 3 4 7 10 9 6 3 9 13 12 9 10 14 16 14 12 16 16 12 11 9 7
9 8 6 6 6 7 8 9 9 8 8 8 8 9 8 7 8 10 9 6 6 4 3 5 6 8 9 5 8 10 11 11 10 9 10 11 12 15 16 14 12 10 7
8 7 6 7 8 9 8 6 7 8 8 9 10 10 10 9 10 12 9 6 6 7 6 5 5 10 11 7 2 4 6 9 10 11 10 10 10 11 13 12 11 9 8
6 7 8 8 7 8 8 7 6 7 8 9 9 9 8 8 8 13 13 7 6 8 8 7 8 9 11 10 4 7 9 8 8 9 9 8 9 9 9 10 10 9 6
7 8 8 8 8 7 8 8 8 8 8 8 8 8 7 7 8 12 14 10 9 6 8 10 12 10 11 10 11 10 9 7 8 9 9 8 7 8 8 7 7 7 5
6 7 7 7 7 8 7 6 5 6 8 9 8 7 7 6 7 8 10 10 10 8 11 12 11 7 11 12 9 8 5 6 6 7 8 7 7 7 7 7 8 8 7
5 6 8 7 7 8 8 6 7 7 6 6 7 7 7 8 9 10 9 11 13 14 12 8 6 4 6 7 6 5 6 6 6 6 8 8 8 8 7 7 8 9 8
6 8 6 6 7 6 6 4 0 2 4 2 3 5 4 2 5 10 10 10 10 15 12 9 9 10 9 8 7 7 6 7 7 7 7 8 8 9 8 8 8 9 8
4 4 4 5 5 4 6 6 5 3 3 4 3 3 4 2 6 9 12 14 16 17 10 10 10 9 10 10 8 7 7 8 8 8 8 8 9 9 9 9 9 9 8
4 3 3 3 3 5 6 6 5 6 6 5 4 3 4 5 6 10 14 12 12 12 10 11 11 11 10 10 9 8 8 9 9 8 8 9 9 9 9 10 10 10 10
3 3 4 4 4 4 4 4 3 4 4 3 3 3 3 3 6 13 15 9 10 10 9 6 5 8 7 7 9 9 10 9 9 9 9 9 9 9 9 10 10 10 10
3 2 2 4 5 5 5 5 5 4 4 5 4 3 3 3 4 6 7 7 8 8 7 7 7 8 7 7 8 9 10 10 10 9 9 10 10 10 10 11 10 10 11
1 1 3 3 5 6 6 5 4 4 4 4 4 4 3 2 5 6 4 4 6 7 7 8 7 6 7 8 8 10 11 11 11 11 11 11 11 11 11 11 11 11 11
1 2 3 3 2 1 2 3 3 3 3 3 3 4 5 3 4 5 4 4 4 5 8 9 9 9 10 9 10 11 12 13 13 13 12 12 12 12 12 11 11 11 11
2 3 3 3 3 4 4 4 3 4 4 4 4 5 5 4 4 5 6 6 6 6 7 9 11 11 7 10 12 13 13 13 13 14 13 12 12 12 12 12 13 12 12
3 2 2 3 4 4 4 3 3 3 4 5 4 4 5 5 5 6 5 5 7 7 7 7 9 11 13 12 14 15 15 15 15 15 15 13 13 13 13 13 13 14 14
3 3 3 3 3 3 2 3 3 3 3 4 3 4 4 4 5 5 5 5 6 7 9 8 8 9 12 14 14 14 14 15 16 16 16 13 13 14 13 13 13 13 14
3 3 3 2 2 2 2 3 3 3 3 3 3 3 3 3 4 4 5 5 6 7 8 7 9 12 14 15 17 17 17 18 19 18 16 13 13 14 14 13 14 12 12
Wind_Direction
169 158 219 209 183 189 226 234 225 224 220 225 226 229 216 206 199 198 209 199 211 211 212 223 207 194 184 187 195 187 185 184 139 134 113 131 131 126 127 112 103 91 83
197 180 218 241 229 235 246 250 246 243 234 231 233 233 223 213 205 204 210 205 210 216 213 214 209 176 181 183 187 180 184 169 154 142 134 123 134 139 135 130 114 102 94
193 193 195 215 237 238 240 238 240 240 233 231 227 226 223 212 206 208 211 208 211 208 206 208 196 171 189 193 188 185 184 177 166 152 151 138 132 144 148 144 129 118 104
193 197 212 226 222 219 222 229 241 242 235 229 223 215 208 202 201 202 205 201 192 176 171 198 195 181 211 206 195 182 179 178 176 164 155 158 156 169 171 157 150 148 136
196 208 225 219 206 212 228 244 254 256 250 235 228 214 195 194 198 198 202 198 181 170 169 156 279 350 329 221 201 183 177 177 179 171 145 164 166 175 180 174 164 156 150
201 210 215 221 210 215 232 247 252 248 244 225 220 208 195 201 167 177 179 182 189 183 165 146 184 309 309 316 290 218 184 184 185 181 168 179 177 183 183 175 166 166 170
208 213 217 215 212 215 223 235 242 239 228 219 208 197 205 204 168 180 177 195 190 184 177 161 169 190 251 209 186 160 119 63 122 189 185 186 183 185 179 176 174 183 175
214 220 218 223 222 224 226 230 231 228 219 211 204 201 210 206 184 180 177 200 203 199 184 171 193 203 220 205 182 182 173 164 164 186 189 180 175 173 177 172 170 160 119
218 224 207 209 221 237 233 228 221 210 210 207 206 202 200 194 174 171 182 192 171 178 187 188 199 197 188 229 198 180 169 149 81 64 63 87 120 154 166 161 162 164 165
217 220 212 219 229 233 234 229 216 204 210 206 203 211 212 202 175 171 183 183 172 156 171 186 215 183 170 192 213 186 180 167 160 143 114 109 139 155 167 174 170 181 181
213 221 222 232 238 234 232 234 213 198 205 215 208 207 212 215 190 180 191 185 185 176 178 173 170 162 155 151 241 188 169 157 166 160 153 149 153 165 182 196 185 198 200
215 223 227 235 243 240 229 216 202 198 209 216 215 210 211 213 210 185 188 215 197 196 188 186 167 160 140 132 116 99 107 137 162 158 156 160 163 172 185 195 197 205 224
218 219 226 237 240 238 234 223 206 203 212 214 215 214 211 208 213 188 178 181 182 192 154 136 131 138 130 113 115 144 156 164 168 169 166 164 165 165 168 173 178 175 161
245 232 231 239 248 237 226 220 210 214 222 215 210 220 222 200 212 200 181 179 169 147 135 130 122 110 89 99 134 164 166 162 170 167 152 146 149 161 168 169 167 169 168
230 228 241 238 239 247 239 224 219 218 230 238 226 228 218 212 201 202 189 192 186 167 155 148 136 104 119 149 162 160 150 146 144 150 151 158 166 171 174 181 183 186 193
219 222 234 259 255 250 246 222 36 238 206 241 322 307 280 97 146 184 190 180 161 153 167 174 181 180 173 168 172 172 167 165 157 163 167 168 173 178 177 181 185 195 200
279 275 269 259 251 216 204 204 187 172 194 204 208 230 254 225 186 187 173 166 166 165 180 185 185 192 182 172 176 171 172 175 164 169 176 178 181 181 182 185 188 196 199
299 265 236 178 186 201 201 196 197 191 192 185 180 187 199 211 193 171 161 160 173 187 203 202 190 184 182 170 165 173 179 175 171 175 183 186 189 188 192 197 197 200 202
279 219 196 172 178 181 194 182 189 207 217 196 179 158 148 167 173 160 161 168 178 194 201 198 183 171 162 164 169 178 182 177 178 181 186 190 195 198 201 205 206 205 209
218 232 221 177 170 176 190 192 203 197 199 192 199 174 156 143 146 161 171 180 182 188 184 172 179 181 169 180 180 182 182 179 184 190 193 196 199 203 205 207 210 206 210
182 210 247 207 185 186 198 196 215 180 183 195 184 168 183 190 160 171 180 175 179 176 175 173 178 181 181 187 190 193 195 192 194 198 198 199 200 204 208 209 210 211 211
220 208 236 230 171 191 212 160 174 168 168 182 156 161 172 172 170 181 185 188 195 190 189 183 187 196 192 196 203 207 207 206 202 202 203 201 202 206 208 210 211 212 215
233 236 234 218 181 184 181 158 169 155 156 164 164 167 186 204 198 199 201 200 211 208 205 209 202 201 203 207 211 214 214 212 209 205 204 202 203 206 208 209 210 214 216
181 199 210 178 178 184 183 177 178 178 171 168 172 183 194 206 211 210 209 203 202 208 207 216 213 208 210 214 216 218 220 216 211 207 205 203 204 206 208 210 211 213 215
163 143 151 164 173 188 195 200 188 195 190 176 183 191 199 208 218 219 208 204 209 205 205 207 216 223 230 230 225 222 220 215 213 206 203 205 207 207 209 213 214 215 216
138 132 133 138 154 196 206 196 195 200 204 193 197 204 206 212 219 221 217 214 215 220 221 214 219 228 231 231 229 223 217 211 211 208 204 204 207 208 208 211 212 214 215
Height
1511 1516 1517 1517 1514 1516 1519 1521 1521 1522 1522 1523 1525 1527 1527 1527 1528 1530 1533 1534 1537 1539 1543 1547 1550 1553 1555 1558 1561 1564 1567 1569 1570 1571 1572 1574 1575 1576 1576 1576 1576 1575 1574
1510 1513 1514 1512 1512 1513 1516 1517 1518 1519 1519 1519 1521 1522 1524 1525 1526 1527 1530 1532 1534 1537 1540 1544 1547 1550 1552 1555 1558 1561 1563 1565 1567 1567 1570 1572 1573 1574 1576 1576 1576 1575 1574
1507 1509 1509 1508 1509 1511 1512 1513 1514 1514 1514 1514 1516 1517 1520 1521 1522 1524 1527 1529 1531 1534 1537 1541 1544 1546 1550 1553 1555 1558 1561 1563 1565 1566 1567 1569 1570 1572 1574 1575 1575 1575 1574
1502 1504 1506 1506 1507 1507 1508 1509 1510 1511 1511 1512 1513 1514 1515 1517 1518 1520 1523 1526 1527 1529 1532 1536 1540 1543 1547 1550 1553 1555 1557 1560 1563 1564 1564 1566 1568 1571 1573 1574 1574 1575 1575
1498 1501 1502 1503 1503 1504 1505 1505 1506 1507 1508 1508 1509 1511 1512 1513 1515 1517 1519 1522 1523 1524 1527 1531 1536 1539 1543 1546 1550 1552 1554 1557 1560 1562 1561 1562 1564 1567 1570 1571 1572 1574 1575
1495 1497 1498 1499 1500 1500 1501 1502 1503 1503 1504 1504 1506 1507 1507 1509 1511 1513 1514 1516 1518 1520 1523 1526 1532 1536 1539 1542 1545 1549 1552 1554 1556 1559 1559 1559 1560 1564 1567 1568 1570 1572 1574
1493 1494 1496 1496 1497 1498 1498 1499 1499 1499 1500 1501 1502 1502 1504 1506 1508 1510 1511 1513 1515 1517 1520 1524 1528 1531 1534 1538 1542 1545 1548 1551 1554 1557 1558 1558 1559 1561 1563 1566 1568 1571 1574
1490 1492 1493 1493 1494 1495 1495 1496 1496 1497 1497 1498 1500 1501 1501 1503 1505 1506 1508 1510 1512 1514 1517 1520 1525 1528 1531 1536 1540 1543 1545 1547 1550 1553 1556 1557 1559 1560 1562 1565 1566 1569 1571
1486 1488 1488 1489 1489 1491 1492 1492 1494 1495 1496 1496 1497 1499 1501 1503 1504 1504 1506 1508 1509 1511 1514 1518 1522 1526 1528 1534 1538 1541 1544 1546 1547 1549 1552 1554 1557 1558 1560 1562 1564 1566 1569
1483 1484 1484 1485 1486 1486 1488 1489 1490 1492 1493 1494 1496 1498 1500 1502 1503 1504 1505 1506 1506 1509 1511 1514 1518 1522 1527 1532 1536 1540 1543 1544 1545 1548 1550 1553 1555 1557 1558 1561 1563 1565 1569
1478 1479 1480 1481 1482 1483 1484 1485 1486 1488 1490 1492 1494 1496 1497 1499 1501 1502 1503 1504 1505 1506 1507 1510 1515 1519 1524 1529 1533 1537 1540 1541 1542 1546 1548 1550 1553 1555 1557 1559 1561 1564 1567
1473 1475 1476 1477 1478 1479 1480 1482 1483 1485 1487 1489 1491 1493 1495 1496 1497 1498 1500 1502 1503 1504 1505 1508 1511 1516 1521 1526 1529 1533 1536 1538 1539 1542 1545 1547 1549 1552 1554 1556 1558 1560 1563
1470 1471 1472 1474 1475 1475 1476 1478 1480 1481 1483 1484 1486 1488 1490 1491 1493 1495 1497 1499 1500 1502 1503 1506 1509 1513 1519 1522 1527 1531 1533 1535 1536 1539 1542 1544 1546 1548 1550 1552 1554 1556 1557
1466 1467 1469 1470 1471 1472 1472 1474 1475 1477 1478 1480 1481 1483 1485 1486 1488 1491 1493 1496 1498 1499 1501 1505 1509 1512 1514 1519 1524 1526 1528 1531 1533 1536 1538 1540 1542 1545 1547 1548 1550 1552 1554
1461 1462 1464 1466 1467 1468 1470 1471 1472 1472 1474 1477 1479 1481 1482 1483 1484 1487 1489 1492 1494 1497 1499 1502 1505 1509 1513 1517 1521 1523 1526 1528 1530 1532 1534 1537 1539 1541 1543 1545 1546 1548 1550
1459 1460 1461 1462 1463 1464 1465 1467 1468 1470 1471 1473 1475 1477 1478 1479 1480 1482 1484 1488 1491 1493 1496 1498 1502 1505 1508 1514 1518 1521 1523 1525 1527 1529 1531 1533 1535 1537 1539 1541 1543 1545 1547
1457 1457 1456 1457 1458 1459 1461 1463 1465 1467 1468 1469 1471 1473 1473 1474 1476 1478 1480 1482 1486 1489 1492 1495 1498 1501 1505 1509 1514 1517 1520 1522 1524 1526 1528 1530 1532 1534 1535 1537 1539 1541 1543
1454 1454 1454 1455 1456 1458 1460 1462 1464 1465 1466 1467 1469 1469 1470 1471 1472 1474 1476 1478 1481 1485 1488 1492 1495 1497 1501 1505 1510 1515 1517 1519 1520 1523 1525 1527 1528 1530 1532 1534 1535 1536 1538
1453 1453 1454 1454 1456 1458 1459 1461 1462 1463 1464 1465 1467 1467 1468 1468 1469 1470 1472 1474 1476 1479 1483 1486 1490 1494 1497 1502 1506 1511 1514 1515 1516 1519 1521 1523 1524 1526 1528 1530 1531 1532 1534
1452 1453 1454 1454 1456 1457 1458 1460 1462 1462 1463 1464 1465 1465 1466 1466 1466 1467 1469 1471 1473 1476 1479 1483 1488 1492 1495 1499 1503 1506 1509 1510 1512 1514 1517 1518 1520 1522 1524 1525 1527 1528 1529
1452 1453 1454 1455 1456 1457 1458 1459 1461 1461 1461 1462 1463 1464 1464 1465 1465 1466 1468 1470 1471 1473 1476 1479 1483 1487 1492 1496 1499 1502 1504 1506 1508 1510 1512 1513 1515 1517 1519 1520 1521 1522 1524
1452 1452 1453 1454 1455 1456 1457 1458 1459 1460 1460 1460 1462 1463 1464 1465 1465 1465 1467 1469 1470 1471 1473 1476 1479 1483 1488 1492 1496 1498 1500 1502 1504 1505 1507 1508 1510 1511 1513 1514 1515 1516 1518
1451 1452 1452 1453 1454 1455 1457 1457 1458 1459 1460 1460 1461 1462 1463 1464 1465 1466 1466 1466 1468 1470 1472 1473 1477 1480 1484 1489 1491 1492 1494 1496 1498 1500 1501 1502 1503 1505 1506 1507 1509 1510 1512
1451 1451 1451 1452 1453 1455 1456 1457 1458 1459 1460 1460 1461 1462 1463 1463 1464 1465 1465 1465 1466 1468 1469 1471 1474 1477 1481 1484 1485 1487 1489 1491 1493 1494 1495 1496 1498 1499 1500 1501 1502 1504 1505
1452 1452 1452 1452 1453 1454 1455 1456 1457 1458 1460 1460 1461 1461 1462 1462 1462 1463 1464 1464 1465 1466 1468 1470 1472 1474 1476 1478 1479 1481 1483 1485 1487 1488 1489 1491 1492 1493 1494 1495 1496 1497 1498
1452 1452 1452 1453 1453 1453 1454 1455 1456 1457 1458 1459 1460 1460 1460 1460 1461 1461 1462 1463 1463 1464 1465 1467 1468 1470 1471 1472 1473 1475 1477 1479 1481 1482 1483 1484 1485 1486 1487 1488 1489 1490 1492